Weather History for Valladolid Airport, Spain

Change the Weather History Date:

Wednesday, May 29, 2013

  Actual Average Record
Temperature  
Mean Temperature 46 °F -  
Max Temperature 59 °F - - ()
Min Temperature 33 °F - - ()
Degree Days  
Heating Degree Days 19    
Moisture  
Dew Point 40 °F    
Average Humidity 72    
Maximum Humidity 100    
Minimum Humidity 36    
Precipitation  
Precipitation 0.00 in - - ()
Sea Level Pressure  
Sea Level Pressure 29.94 in    
Wind  
Wind Speed 12 mph ()    
Max Wind Speed 24 mph    
Max Gust Speed 37 mph    
Visibility 5.6 miles    
Events Rain    
T = Trace of Precipitation, MM = Missing Value Source: Averaged Metar Reports

Daily Weather History Graph

Daily Weather History Graph

Search for Another Location

Airport:

Trip Planner

Search our weather history database for the weather conditions in past years. The results will help you decide how hot, cold, wet, or windy it might be!

Date:

Astronomy

May. 29, 2013 Rise Set
Actual Time 6:48 AM CEST 9:45 PM CEST
Civil Twilight 6:15 AM CEST 10:18 PM CEST
Nautical Twilight 5:33 AM CEST 11:00 PM CEST
Astronomical Twilight 4:44 AM CEST 11:49 PM CEST
Moon 12:56 AM CEST (5/29) 11:33 AM CEST (5/29)
Length of Visible Light 16h 02m
Length of Day
14h 56m
Waning Gibbous, 76% of the Moon is Illuminated
May 29
Waning Gibbous
May 31
Last Quarter
Jun 8
New
Jun 16
First Quarter
Jun 23
Full

Hourly Weather History & Observations

Time (CEST) Temp. Windchill Dew Point Humidity Pressure Visibility Wind Dir Wind Speed Gust Speed Precip Events Conditions
7:00 AM 33.8 °F 27.7 °F 32.0 °F 93% 29.95 in - WSW 6.9 mph - N/A   Clear
7:30 AM 33.8 °F 26.4 °F 33.8 °F 100% 29.95 in - WSW 9.2 mph - N/A   Clear
8:00 AM 37.4 °F 30.8 °F 35.6 °F 93% 29.95 in - WSW 9.2 mph - N/A   Clear
8:30 AM 41.0 °F 34.7 °F 37.4 °F 87% 29.98 in - WSW 10.4 mph - N/A   Clear
9:00 AM 42.8 °F 36.2 °F 39.2 °F 87% 29.98 in - WSW 12.7 mph - N/A   Clear
9:30 AM 44.6 °F 37.4 °F 37.4 °F 76% 29.98 in 6.2 mi West 16.1 mph - N/A   Partly Cloudy
10:00 AM 46.4 °F 40.1 °F 39.2 °F 76% 29.98 in 6.2 mi West 15.0 mph - N/A   Partly Cloudy
10:30 AM 48.2 °F - 37.4 °F 66% 29.98 in 6.2 mi West 16.1 mph - N/A   Scattered Clouds
11:00 AM 50.0 °F - 33.8 °F 54% 29.98 in 6.2 mi WNW 17.3 mph 29.9 mph N/A   Mostly Cloudy
11:30 AM 50.0 °F - 35.6 °F 58% 29.98 in 6.2 mi West 19.6 mph - N/A   Mostly Cloudy
12:00 PM 51.8 °F - 35.6 °F 54% 29.98 in 6.2 mi West 15.0 mph - N/A   Mostly Cloudy
12:30 PM 51.8 °F - 33.8 °F 50% 29.98 in 6.2 mi WNW 16.1 mph - N/A   Mostly Cloudy
1:00 PM 53.6 °F - 37.4 °F 54% 29.98 in 6.2 mi West 16.1 mph - N/A   Scattered Clouds
1:30 PM 51.8 °F - 37.4 °F 58% 29.95 in 6.2 mi West 16.1 mph - N/A   Scattered Clouds
2:00 PM 53.6 °F - 33.8 °F 47% 29.95 in 6.2 mi West 15.0 mph - N/A   Partly Cloudy
2:30 PM 55.4 °F - 35.6 °F 47% 29.95 in 6.2 mi West 18.4 mph - N/A   Partly Cloudy
3:00 PM 55.4 °F - 37.4 °F 51% 29.92 in 6.2 mi WNW 12.7 mph - N/A   Scattered Clouds
3:30 PM 59.0 °F - 42.8 °F 55% 29.92 in 6.2 mi West 21.9 mph - N/A   Scattered Clouds
4:00 PM 59.0 °F - 41.0 °F 51% 29.89 in 6.2 mi WSW 23.0 mph - N/A   Scattered Clouds
4:30 PM 59.0 °F - 37.4 °F 45% 29.89 in 6.2 mi WNW 19.6 mph 36.8 mph N/A   Scattered Clouds
5:00 PM 57.2 °F - 30.2 °F 36% 29.92 in 6.2 mi WNW 24.2 mph 35.7 mph N/A   Scattered Clouds
5:30 PM 51.8 °F - 44.6 °F 76% 29.92 in 4.3 mi West 16.1 mph 27.6 mph N/A Rain Rain
6:00 PM 50.0 °F - 46.4 °F 87% 29.92 in 4.3 mi West 12.7 mph - N/A Rain Rain
6:30 PM 50.0 °F - 48.2 °F 94% 29.92 in 2.5 mi West 17.3 mph - N/A Rain Rain
7:00 PM 50.0 °F - 48.2 °F 94% 29.92 in 4.3 mi West 18.4 mph - N/A Rain Rain
7:30 PM 50.0 °F - 48.2 °F 94% 29.89 in 4.3 mi West 12.7 mph - N/A Rain Rain
8:00 PM 50.0 °F - 48.2 °F 94% 29.89 in 3.7 mi West 11.5 mph - N/A Rain Rain
8:30 PM 48.2 °F - 48.2 °F 100% 29.89 in 6.2 mi WNW 10.4 mph - N/A Rain Light Rain
9:00 PM 50.0 °F - 48.2 °F 94% 29.89 in 6.2 mi WNW 8.1 mph - N/A   Scattered Clouds
9:30 PM 48.2 °F - 48.2 °F 100% 29.89 in 6.2 mi WNW 4.6 mph - N/A   Partly Cloudy